Location: Ernez
(36.4595°N, 29.8755°E)
Time: 08:29:51
(UTC+00:00)

CZ-2D R/B - Pass Details

Date: 13 November 2025
Orbit: 404 x 413 km, 97.4° (Epoch: 04 December)

Event Time Altitude Azimuth Distance (km) Brightness Sun altitude
Rises 15:32:31 0° 163° (SSE) 2,340 6.5 -8.3°
Reaches altitude 10° 15:34:31 10° 161° (SSE) 1,479 5.5 -8.7°
Maximum altitude 15:37:39 70° 77° (ENE) 443 2.6 -9.3°
Drops below altitude 10° 15:40:48 10° 353° (N) 1,481 5.4 -9.9°
Sets 15:42:47 0° 351° (N) 2,344 6.5 -10.3°
